KORGOLDH4 Weather Reports


time (UTC)temp
C
wind
direction
speed
KPH
gust
KPH
rain 1hr
cm
rain 24hr
cm
rain mn
cm
humidity
%
barometer
mb
20260503233012 29 0.0 0.0 0.00 0.00 0.00 31 1005.8
20260503232512 29 0.0 0.0 0.00 0.00 0.00 30 1004.9
20260503232012 29 0.0 0.0 0.00 0.00 0.00 30 1004.7
20260503231512 29 0.0 0.0 0.00 0.00 0.00 30 1004.6
20260503231011 30 0.0 0.0 0.00 0.00 0.00 29 1004.7
20260503230511 30 0.0 0.0 0.00 0.00 0.00 28 1004.7
20260503230011 30 0.0 0.0 0.00 0.00 0.00 27 1004.7
20260503225512 30 0.0 0.0 0.00 0.00 0.00 28 1004.7
20260503225012 30 0.0 0.0 0.00 0.00 0.00 29 1004.7
20260503224512 31 0.0 0.0 0.00 0.00 0.00 29 1004.6
20260503223011 30 0.0 0.0 0.00 0.00 0.00 29 1005.0
20260503222511 30 0.0 0.0 0.00 0.00 0.00 27 1005.0
20260503222011 30 0.0 0.0 0.00 0.00 0.00 29 1005.0
20260503221512 30 0.0 0.0 0.00 0.00 0.00 29 1005.0
20260503221011 31 0.0 0.0 0.00 0.00 0.00 32 1005.0
20260503220511 30 0.0 0.0 0.00 0.00 0.00 30 1005.1
20260503220011 30 0.0 0.0 0.00 0.00 0.00 30 1005.2
20260503215012 30 0.0 0.0 0.00 0.00 0.00 34 1005.4
20260503214011 30 0.0 0.0 0.00 0.00 0.00 35 1005.7
20260503213511 29 0.0 0.0 0.00 0.00 0.00 32 1005.8
20260503213011 29 0.0 0.0 0.00 0.00 0.00 32 1005.9
20260503211511 29 0.0 0.0 0.00 0.00 0.00 34 1006.2
20260503211012 29 0.0 0.0 0.00 0.00 0.00 34 1006.3
20260503210512 29 0.0 0.0 0.00 0.00 0.00 33 1006.4
20260503210012 29 0.0 0.0 0.00 0.00 0.00 34 1006.5
20260503205511 29 0.0 0.0 0.00 0.00 0.00 33 1006.5
20260503204011 28 0.0 0.0 0.00 0.00 0.00 38 1006.7
20260503203511 28 0.0 0.0 0.00 0.00 0.00 35 1006.7
20260503203012 28 0.0 0.0 0.00 0.00 0.00 36 1006.8
20260503202512 28 0.0 0.0 0.00 0.00 0.00 37 1006.8
20260503202011 28 0.0 0.0 0.00 0.00 0.00 37 1006.8
20260503201511 28 0.0 0.0 0.00 0.00 0.00 36 1006.9
20260503201011 28 0.0 0.0 0.00 0.00 0.00 36 1006.9
20260503200511 28 0.0 0.0 0.00 0.00 0.00 33 1007.0
20260503200011 28 0.0 0.0 0.00 0.00 0.00 35 1006.1
20260503195512 28 0.0 0.0 0.00 0.00 0.00 36 1006.2
20260503195011 28 0.0 0.0 0.00 0.00 0.00 37 1006.2
20260503194512 28 0.0 0.0 0.00 0.00 0.00 36 1006.3
20260503193511 27 0.0 0.0 0.00 0.00 0.00 38 1006.4
20260503193011 27 0.0 0.0 0.00 0.00 0.00 40 1006.6
20260503192511 27 0.0 0.0 0.00 0.00 0.00 38 1006.6
20260503192011 26 0.0 0.0 0.00 0.00 0.00 42 1006.6
20260503191512 26 0.0 0.0 0.00 0.00 0.00 40 1006.7
20260503191011 26 0.0 0.0 0.00 0.00 0.00 40 1006.9
20260503190511 26 0.0 0.0 0.00 0.00 0.00 45 1006.9
20260503190011 26 0.0 0.0 0.00 0.00 0.00 44 1007.0
20260503185512 25 0.0 0.0 0.00 0.00 0.00 46 1007.0
20260503183511 23 0.0 0.0 0.00 0.00 0.00 52 1007.3
20260503183011 23 0.0 0.0 0.00 0.00 0.00 51 1007.3
20260503182512 22 0.0 0.0 0.00 0.00 0.00 52 1007.4
20260503182012 22 0.0 0.0 0.00 0.00 0.00 52 1007.6
20260503181511 22 0.0 0.0 0.00 0.00 0.00 52 1007.6
20260503181012 22 0.0 0.0 0.00 0.00 0.00 53 1007.7
20260503180512 21 0.0 0.0 0.00 0.00 0.00 52 1007.8
20260503180011 21 0.0 0.0 0.00 0.00 0.00 53 1007.8
20260503175511 21 0.0 0.0 0.00 0.00 0.00 53 1007.9
20260503175011 21 0.0 0.0 0.00 0.00 0.00 52 1008.0
20260503174512 20 0.0 0.0 0.00 0.00 0.00 50 1008.0
20260503174011 20 0.0 0.0 0.00 0.00 0.00 48 1008.1
20260503173511 20 0.0 0.0 0.00 0.00 0.00 49 1008.2
20260503173011 20 0.0 0.0 0.00 0.00 0.00 48 1008.2
20260503172511 19 0.0 0.0 0.00 0.00 0.00 45 1008.3
20260503172011 19 0.0 0.0 0.00 0.00 0.00 37 1008.4
20260503171511 18 0.0 0.0 0.00 0.00 0.00 40 1008.4
20260503171011 18 0.0 0.0 0.00 0.00 0.00 21 1008.4
20260503170511 18 0.0 0.0 0.00 0.00 0.00 18 1008.4
20260503151011 11 0.0 0.0 0.00 0.00 0.00 1 1009.1
20260503150512 11 0.0 0.0 0.00 0.00 0.00 1 1009.2
20260503131011 10 0.0 0.0 0.00 0.00 0.00 1 1008.5
20260503130511 10 0.0 0.0 0.00 0.00 0.00 1 1008.5